Weather History for Visalia, CA

Change the Weather History Date:

Sunday, March 3, 2013

  Actual Average Record
Temperature  
Mean Temperature 60 °F -  
Max Temperature 69 °F 62 °F 79 °F (1931)
Min Temperature 51 °F 43 °F 29 °F (1951)
Degree Days  
Heating Degree Days 5    
Growing Degree Days 10 (Base 50)    
Moisture  
Dew Point 45 °F    
Average Humidity 57    
Maximum Humidity 77    
Minimum Humidity 38    
Precipitation  
Precipitation 0.00 in - - ()
Sea Level Pressure  
Sea Level Pressure 30.04 in    
Wind  
Wind Speed 6 mph (NNW)    
Max Wind Speed 15 mph    
Max Gust Speed 21 mph    
Visibility 10 miles    
Events      
Averages and records for this station are not official NWS values.
T = Trace of Precipitation, MM = Missing Value Source: NWS Daily Summary

Daily Weather History Graph

Daily Weather History Graph

Search for Another Location

Airport:

Trip Planner

Search our weather history database for the weather conditions in past years. The results will help you decide how hot, cold, wet, or windy it might be!

Date:

Astronomy

Mar. 03, 2013 Rise Set
Actual Time 6:24 AM PST 5:54 PM PST
Civil Twilight 5:59 AM PST 6:20 PM PST
Nautical Twilight 5:29 AM PST 6:50 PM PST
Astronomical Twilight 4:59 AM PST 7:19 PM PST
Moon No Moon Rise 9:55 AM PST (3/3)
Length of Visible Light 12h 21m
Length of Day
11h 29m
Waning Gibbous, 62% of the Moon is Illuminated
Mar 3
Waning Gibbous
Mar 4
Last Quarter
Mar 11
New
Mar 19
First Quarter
Mar 27
Full

Hourly Weather History & Observations

Time (PST) Temp. Dew Point Humidity Pressure Visibility Wind Dir Wind Speed Gust Speed Precip Events Conditions
12:15 AM 60.8 °F 44.6 °F 55% 30.12 in 10.0 mi NNW 5.8 mph - N/A   Mostly Cloudy
12:35 AM 62.6 °F 46.4 °F 55% 30.12 in 10.0 mi North 6.9 mph - N/A   Mostly Cloudy
12:55 AM 69.8 °F 42.8 °F 38% 30.12 in 10.0 mi South 15.0 mph 20.7 mph N/A   Overcast
1:15 AM 64.4 °F 46.4 °F 52% 30.10 in 10.0 mi ENE 4.6 mph - N/A   Mostly Cloudy
1:35 AM 62.6 °F 46.4 °F 55% 30.08 in 10.0 mi ENE 6.9 mph - N/A   Mostly Cloudy
1:55 AM 62.6 °F 44.6 °F 52% 30.07 in 10.0 mi NNW 4.6 mph - N/A   Mostly Cloudy
2:15 AM 64.4 °F 44.6 °F 49% 30.07 in 10.0 mi North 4.6 mph - N/A   Mostly Cloudy
2:35 AM 62.6 °F 44.6 °F 52% 30.07 in 10.0 mi WNW 6.9 mph - N/A   Overcast
2:55 AM 60.8 °F 46.4 °F 59% 30.06 in 10.0 mi North 4.6 mph - N/A   Overcast
3:15 AM 60.8 °F 46.4 °F 59% 30.05 in 10.0 mi Calm Calm - N/A   Overcast
3:35 AM 59.0 °F 46.4 °F 63% 30.05 in 10.0 mi Calm Calm - N/A   Overcast
3:55 AM 59.0 °F 46.4 °F 63% 30.06 in 10.0 mi West 5.8 mph - N/A   Overcast
4:15 AM 59.0 °F 46.4 °F 63% 30.06 in 10.0 mi NW 6.9 mph - N/A   Overcast
4:35 AM 59.0 °F 46.4 °F 63% 30.06 in 9.0 mi NNW 3.5 mph - N/A   Overcast
4:55 AM 57.2 °F 46.4 °F 67% 30.06 in 10.0 mi West 6.9 mph - N/A   Overcast
5:15 AM 57.2 °F 48.2 °F 72% 30.06 in 8.0 mi NW 5.8 mph - N/A   Overcast
5:35 AM 57.2 °F 48.2 °F 72% 30.05 in 7.0 mi NNW 6.9 mph - N/A   Overcast
5:55 AM 59.0 °F 48.2 °F 67% 30.05 in 9.0 mi WNW 6.9 mph - N/A   Overcast
6:15 AM 59.0 °F 48.2 °F 67% 30.05 in 10.0 mi Calm Calm - N/A   Overcast
6:35 AM 57.2 °F 48.2 °F 72% 30.05 in 6.0 mi SE 6.9 mph - N/A   Overcast
6:55 AM 55.4 °F 48.2 °F 77% 30.05 in 6.0 mi SSE 5.8 mph - N/A   Overcast
7:15 AM 55.4 °F 46.4 °F 72% 30.05 in 8.0 mi South 3.5 mph - N/A   Overcast
7:35 AM 57.2 °F 48.2 °F 72% 30.06 in 7.0 mi South 4.6 mph - N/A   Overcast
7:55 AM 57.2 °F 48.2 °F 72% 30.06 in 7.0 mi SSW 3.5 mph - N/A   Overcast
8:15 AM 57.2 °F 48.2 °F 72% 30.07 in 7.0 mi South 3.5 mph - N/A   Overcast
8:35 AM 59.0 °F 46.4 °F 63% 30.08 in 10.0 mi South 5.8 mph - N/A   Overcast
8:55 AM 59.0 °F 48.2 °F 67% 30.08 in 10.0 mi SSW 3.5 mph - N/A   Mostly Cloudy
9:15 AM 60.8 °F 48.2 °F 63% 30.08 in 10.0 mi NW 4.6 mph - N/A   Mostly Cloudy
9:35 AM 62.6 °F 48.2 °F 59% 30.08 in 10.0 mi NW 3.5 mph - N/A   Overcast
9:55 AM 62.6 °F 48.2 °F 59% 30.07 in 10.0 mi WNW 3.5 mph - N/A   Mostly Cloudy
10:15 AM 64.4 °F 48.2 °F 56% 30.07 in 10.0 mi North 5.8 mph - N/A   Mostly Cloudy
10:35 AM 64.4 °F 46.4 °F 52% 30.07 in 10.0 mi NNE 5.8 mph - N/A   Overcast
10:55 AM 64.4 °F 48.2 °F 56% 30.07 in 10.0 mi Calm Calm - N/A   Overcast
11:15 AM 64.4 °F 48.2 °F 56% 30.06 in 10.0 mi NE 4.6 mph - N/A   Overcast
11:55 AM 64.4 °F 46.4 °F 52% 30.06 in 10.0 mi North 6.9 mph - N/A   Overcast
12:15 PM 64.4 °F 46.4 °F 52% 30.06 in 10.0 mi North 5.8 mph - N/A   Overcast
12:35 PM 66.2 °F 46.4 °F 49% 30.05 in 10.0 mi NNW 4.6 mph - N/A   Overcast
12:55 PM 64.4 °F 46.4 °F 52% 30.04 in 10.0 mi North 5.8 mph - N/A   Overcast
1:15 PM 66.2 °F 44.6 °F 46% 30.04 in 10.0 mi North 5.8 mph - N/A   Overcast
1:35 PM 66.2 °F 44.6 °F 46% 30.03 in 10.0 mi North 9.2 mph - N/A   Overcast
1:55 PM 66.2 °F 42.8 °F 43% 30.03 in 10.0 mi North 9.2 mph - N/A   Overcast
2:15 PM 68.0 °F 42.8 °F 40% 30.02 in 10.0 mi North 10.4 mph - N/A   Overcast
2:35 PM 69.8 °F 44.6 °F 40% 30.02 in 10.0 mi North 6.9 mph - N/A   Overcast
2:55 PM 68.0 °F 42.8 °F 40% 30.02 in 10.0 mi North 6.9 mph - N/A   Overcast
3:15 PM 66.2 °F 42.8 °F 43% 30.02 in 10.0 mi NNE 5.8 mph - N/A   Mostly Cloudy
3:35 PM 69.8 °F 42.8 °F 38% 30.01 in 10.0 mi NNE 6.9 mph - N/A   Partly Cloudy
3:55 PM 69.8 °F 42.8 °F 38% 30.01 in 10.0 mi North 6.9 mph - N/A   Clear
4:35 PM 68.0 °F 42.8 °F 40% 29.99 in 10.0 mi North 8.1 mph - N/A   Clear
4:55 PM 68.0 °F 42.8 °F 40% 29.99 in 10.0 mi NNW 8.1 mph - N/A   Clear
5:15 PM 66.2 °F 41.0 °F 40% 29.99 in 10.0 mi NNW 8.1 mph - N/A   Clear
5:35 PM 64.4 °F 41.0 °F 42% 30.00 in 10.0 mi NNW 5.8 mph - N/A   Clear
5:55 PM 62.6 °F 42.8 °F 48% 30.00 in 10.0 mi NNW 5.8 mph - N/A   Clear
6:15 PM 60.8 °F 42.8 °F 52% 30.00 in 10.0 mi NNW 5.8 mph - N/A   Partly Cloudy
6:35 PM 60.8 °F 41.0 °F 48% 30.01 in 10.0 mi NNW 10.4 mph - N/A   Partly Cloudy
6:55 PM 60.8 °F 42.8 °F 52% 30.01 in 10.0 mi NNW 8.1 mph - N/A   Scattered Clouds
7:15 PM 59.0 °F 42.8 °F 55% 30.01 in 10.0 mi NW 6.9 mph - N/A   Mostly Cloudy
7:35 PM 59.0 °F 42.8 °F 55% 30.00 in 10.0 mi NW 6.9 mph - N/A   Scattered Clouds
7:55 PM 57.2 °F 42.8 °F 59% 30.01 in 10.0 mi NW 6.9 mph - N/A   Partly Cloudy
8:15 PM 55.4 °F 42.8 °F 63% 30.01 in 10.0 mi NW 6.9 mph - N/A   Scattered Clouds
8:35 PM 55.4 °F 42.8 °F 63% 30.02 in 10.0 mi NNW 6.9 mph - N/A   Partly Cloudy
8:55 PM 55.4 °F 41.0 °F 58% 30.02 in 10.0 mi NW 4.6 mph - N/A   Clear
9:15 PM 55.4 °F 41.0 °F 58% 30.02 in 10.0 mi NW 6.9 mph - N/A   Clear
9:35 PM 51.8 °F 39.2 °F 62% 30.02 in 10.0 mi NW 6.9 mph - N/A   Clear
9:55 PM 53.6 °F 41.0 °F 62% 30.02 in 10.0 mi NW 10.4 mph - N/A   Clear
10:15 PM 53.6 °F 41.0 °F 62% 30.03 in 10.0 mi NW 8.1 mph - N/A   Clear
10:35 PM 53.6 °F 42.8 °F 67% 30.03 in 10.0 mi NW 9.2 mph - N/A   Partly Cloudy
10:55 PM 51.8 °F 42.8 °F 71% 30.03 in 10.0 mi NW 8.1 mph - N/A   Mostly Cloudy
11:35 PM 51.8 °F 42.8 °F 71% 30.05 in 10.0 mi NW 4.6 mph - N/A   Clear
11:55 PM 51.8 °F 42.8 °F 71% 30.05 in 10.0 mi NW 6.9 mph - N/A   Partly Cloudy